Starlink 3681

operational
NORAD ID: 51968 Int'l Des: 2022-025 Owner: SPXS Country: US Constellation: starlink
LEOCIRCULARSTARLINK_TYPE

Starlink 3681について

説明を読み込み中...

リアルタイム位置

3D地球を読み込み中...

次回通過

高度履歴

Altitude vs Time

uPlot chart will show altitude changes over time

軌道要素

1 51968U 22025N 25259.23473778 -.00000925 00000-0 -43209-4 0 9994
2 51968 53.0549 90.0852 0001400 89.2705 270.8444 15.06400428194684
Epoch: Sep 16, 2025 • Age: 9 hours

現在のステータス

高度 566.5 km
速度 7.58 km/s
衛星直下点 -52.82°S, 131.61°E
打ち上げ日 Mar 9, 2022
運用期間 3.5 years
タイプ internet

技術仕様

分類 Payload
質量 297.00 kg
乾燥質量 275.00 kg
総質量 297.00 kg
長さ 0.20 m
直径 2.80 m
スパン 9.00 m
形状 Box + pan
製造者 SPXS
バスタイプ Starlink
フェーズステータス In Orbit
所有者/国 SPXS/US

大規模コンステレーション

Loading constellations...